Wind_Speed
18 21 24 24 22 19 19 20 20 20 20 19 20 19 20 19 19 19 19 19 18 18 18 18 18 17 17 16 16 16 16 16 16 15 15 14 14 14 13 13 12 12 12 12 12 12 12 11 11 11 11 10 10 10 10 10 9 10 11 12 14 14 14 15 15 13 12 12 11 12 12 12 12 11 12 14 15 16 16 16 17 18 18 17 16
22 24 24 24 22 20 20 20 20 20 19 20 20 19 19 19 19 19 19 18 18 18 17 17 17 17 16 16 16 15 15 15 15 14 14 14 14 13 13 12 12 12 12 11 11 12 12 12 11 11 11 11 11 11 11 11 11 12 13 14 15 15 15 15 14 13 12 11 11 12 12 11 12 11 12 14 15 16 15 15 16 17 17 16 15
25 25 24 23 22 21 20 20 20 19 19 20 19 19 19 19 19 19 19 18 18 17 17 17 17 17 16 16 15 15 15 14 14 13 13 13 13 12 12 12 11 11 11 11 11 12 12 12 11 11 11 11 11 11 12 13 13 14 14 15 15 15 15 14 13 12 12 11 11 11 11 11 12 12 12 14 16 16 15 14 16 16 16 15 14
26 25 23 23 22 22 21 20 20 19 20 19 19 19 19 19 19 19 18 18 18 17 17 17 16 16 16 15 15 14 14 13 13 12 12 12 12 12 11 11 10 11 11 11 11 11 12 12 11 12 11 11 11 12 13 14 14 14 14 14 14 13 13 13 12 11 11 11 11 11 11 12 13 13 13 15 16 16 15 15 15 16 16 15 15
27 24 22 22 22 22 21 20 20 20 20 19 19 19 19 19 18 18 18 18 18 18 17 16 16 16 15 15 14 14 13 13 12 11 11 11 11 10 10 10 10 10 10 10 11 11 12 12 11 11 11 11 12 13 13 13 14 14 14 14 13 13 12 13 12 11 11 11 11 12 12 12 13 12 13 15 15 15 15 14 14 15 16 15 15
27 24 22 22 22 22 20 20 20 19 19 19 19 19 19 18 18 18 18 17 17 17 17 16 15 15 15 14 13 13 13 12 11 11 11 10 10 9 9 9 9 10 10 10 11 10 11 11 11 11 11 11 12 13 13 13 13 13 13 14 13 13 13 12 12 11 11 12 13 13 12 12 14 12 12 14 14 14 14 14 14 15 17 16 16
28 26 23 23 23 21 20 19 19 19 19 19 19 19 19 18 18 17 17 17 16 17 16 15 15 15 14 13 13 13 12 12 12 11 11 10 9 9 9 9 9 10 10 10 10 10 10 11 11 11 11 11 11 12 13 12 12 12 12 13 13 12 12 12 11 11 11 13 14 14 13 12 14 13 12 14 14 13 13 14 15 17 17 16 16
28 26 25 23 22 21 20 19 18 18 18 18 18 18 18 18 17 17 16 16 16 16 15 15 14 14 13 13 13 12 12 12 12 11 11 10 9 10 9 9 9 10 9 9 10 10 10 11 11 10 11 11 10 12 12 12 12 11 12 12 12 12 12 12 11 11 11 13 13 13 14 13 14 13 12 13 13 12 14 16 17 17 17 16 16
29 27 25 24 22 21 20 19 18 18 18 18 18 18 18 17 17 16 16 16 16 15 15 14 13 13 13 12 11 12 12 11 11 11 11 10 9 10 9 9 10 10 9 9 10 10 11 11 11 11 10 10 10 11 11 11 12 12 12 12 11 11 11 12 11 11 11 13 13 13 13 13 14 14 12 12 12 11 14 17 18 17 16 15 15
29 27 26 23 22 21 20 20 19 19 18 18 18 17 17 16 16 16 15 15 15 15 14 13 13 12 12 11 11 11 11 11 11 11 11 10 9 10 9 10 10 10 9 9 9 10 11 11 11 10 10 10 10 11 11 11 11 12 12 11 11 10 10 11 11 11 12 13 13 12 12 12 14 14 12 12 11 11 13 16 17 15 15 14 14
28 27 25 23 22 20 20 19 18 19 18 18 17 17 16 16 16 15 15 14 14 14 13 13 12 11 11 11 11 11 11 11 11 10 11 10 10 10 10 10 10 10 10 10 10 9 10 12 12 10 9 9 10 11 11 11 11 11 12 12 10 10 10 11 10 11 11 12 12 11 10 11 13 14 12 12 11 12 13 14 15 14 14 13 13
28 27 25 23 21 20 20 18 18 18 18 17 16 17 16 15 15 15 14 14 14 13 12 12 12 11 11 11 11 11 11 11 11 11 11 11 11 10 10 10 10 10 10 10 10 9 10 12 12 9 8 9 10 11 11 11 10 10 11 11 10 10 10 10 10 10 10 10 11 10 10 10 12 12 11 12 12 11 12 12 14 14 14 13 13
28 27 25 23 21 20 19 18 18 17 17 17 16 16 15 15 15 14 14 13 13 12 12 12 11 11 11 11 10 10 10 10 10 11 11 11 11 10 11 11 11 11 11 10 9 9 10 10 11 9 8 9 10 11 11 11 11 11 11 11 10 10 10 9 9 9 9 10 10 10 10 10 11 11 10 11 11 10 12 13 14 15 14 12 13
29 28 26 23 21 20 19 18 18 17 17 16 16 16 15 14 14 14 13 13 13 12 12 12 11 11 11 11 10 10 10 10 10 11 12 12 11 10 11 12 12 12 11 11 10 10 10 9 10 9 9 8 8 8 10 12 12 12 11 10 10 10 9 10 9 9 9 10 10 10 10 11 11 11 10 10 10 11 14 15 14 14 14 12 12
30 29 27 24 22 21 19 18 18 17 17 16 16 15 15 14 13 13 13 13 12 12 12 11 11 11 11 11 10 10 10 10 10 10 10 11 11 10 10 11 12 12 11 10 10 10 9 10 10 10 9 8 8 8 9 11 12 12 10 9 9 9 9 10 10 10 10 10 11 11 11 11 11 11 10 10 11 13 14 15 14 14 13 12 12
30 29 27 25 22 21 20 18 18 18 17 16 16 15 15 14 13 13 12 12 12 12 11 11 11 11 11 11 10 10 10 9 10 10 10 10 10 10 10 10 11 11 11 10 10 10 9 10 9 9 10 9 8 9 9 10 11 11 10 9 9 9 9 10 10 10 10 11 12 11 11 11 10 10 10 11 12 13 14 14 13 12 12 12 11
29 29 27 25 22 21 20 19 18 18 17 16 16 15 14 14 13 13 12 12 11 11 11 11 11 11 11 10 10 10 9 9 10 10 10 9 9 9 9 10 11 10 11 10 10 10 9 9 9 8 9 8 8 9 9 10 10 10 10 9 8 8 8 10 10 10 10 10 11 11 12 11 10 10 10 11 12 12 13 13 12 12 12 12 11
28 28 26 25 23 22 21 20 19 18 17 16 16 15 14 14 13 12 12 11 11 11 10 11 10 10 10 10 10 10 9 9 10 10 9 9 8 9 8 9 10 10 10 10 10 10 9 9 8 8 7 7 8 8 8 9 9 10 10 9 9 8 9 9 10 9 8 8 9 11 11 11 11 10 10 10 11 11 11 11 11 11 11 11 11
27 26 26 25 23 23 22 21 20 19 18 17 16 15 14 13 13 12 11 11 10 10 10 10 10 10 10 10 10 9 9 9 9 9 9 8 8 8 8 9 9 9 9 9 10 9 9 8 8 7 7 7 7 7 7 8 9 9 9 9 9 8 8 9 9 9 8 7 8 10 10 10 10 9 9 10 9 9 9 9 9 10 10 11 10
26 25 25 25 24 23 23 21 21 20 19 18 17 15 14 13 13 12 11 11 10 10 10 10 10 10 10 10 10 9 9 8 8 8 8 8 7 8 9 9 8 9 9 9 9 9 8 7 7 7 7 6 6 7 7 7 8 8 9 9 8 8 8 8 8 8 8 7 7 8 9 9 9 8 8 9 8 8 8 8 8 9 9 10 9
25 25 25 25 24 24 24 22 22 21 20 19 17 16 14 13 13 12 11 11 10 10 9 9 10 10 10 10 10 10 9 8 8 8 8 8 7 7 8 8 8 8 9 9 9 8 8 7 6 6 6 6 6 7 7 7 7 7 8 8 7 7 7 7 7 7 8 8 7 7 8 7 8 8 8 8 8 7 7 7 7 8 8 9 9
26 25 24 25 25 24 24 23 22 21 20 19 18 16 15 14 13 13 12 11 11 10 9 9 9 9 9 9 10 10 9 9 8 7 7 8 7 6 7 7 7 8 8 8 7 7 7 6 6 5 5 5 5 6 6 7 7 7 7 6 5 6 6 6 6 7 7 8 7 7 7 7 6 7 7 7 7 7 7 6 6 7 8 8 8
26 26 25 25 25 25 25 24 23 22 21 20 18 17 15 14 14 13 13 12 11 10 10 9 9 9 9 9 9 9 9 9 7 6 7 7 7 6 6 6 6 6 7 7 6 6 6 6 5 5 4 4 4 5 5 5 6 5 5 4 4 4 5 5 6 6 7 7 7 7 7 6 6 6 6 6 7 6 6 6 6 5 6 6 7
26 26 26 26 25 25 25 24 24 23 22 20 19 18 16 15 14 14 13 13 12 11 11 10 11 10 9 9 9 9 9 9 8 7 6 7 7 6 6 6 6 5 6 6 6 6 6 5 5 4 3 3 4 4 4 4 4 4 3 3 3 3 3 5 5 5 6 7 7 7 7 7 6 6 6 6 6 6 6 6 5 5 4 5 6
25 25 25 26 26 26 26 25 24 23 22 22 21 19 17 16 15 14 14 13 13 12 12 11 11 10 10 10 9 10 10 9 9 8 7 7 8 8 7 7 7 5 5 5 5 5 5 4 4 4 3 3 3 3 3 2 2 2 3 3 2 2 2 3 4 4 5 6 7 7 6 6 6 7 7 7 6 6 6 6 5 5 4 4 5
25 25 26 27 26 27 27 26 25 24 23 22 21 20 19 18 17 16 15 15 14 13 13 12 12 11 11 10 10 10 10 9 8 7 7 7 8 8 7 7 6 5 5 4 4 3 3 3 3 3 3 3 3 2 1 1 1 2 3 2 2 1 1 2 3 3 4 5 7 7 6 5 5 6 7 8 7 6 6 6 5 5 4 4 4
26 25 26 26 26 26 28 27 26 25 24 23 22 21 20 18 18 16 16 16 16 15 14 13 13 12 11 11 11 10 9 8 8 7 6 6 7 7 7 7 6 4 4 4 3 2 2 3 3 3 3 3 3 2 1 1 1 2 3 3 4 3 1 1 2 2 2 3 5 6 6 6 6 6 6 8 7 6 6 6 6 5 4 4 4
26 26 26 26 27 26 28 29 27 27 25 24 23 22 21 19 18 16 16 17 16 15 14 14 13 12 10 11 11 10 9 8 8 7 6 5 5 6 7 7 6 4 3 3 2 2 2 2 2 2 2 2 2 2 2 1 0 1 3 4 5 5 4 2 2 2 2 3 4 6 6 6 7 7 6 6 7 7 6 6 6 5 5 5 5
26 27 27 26 27 27 28 29 29 28 27 26 25 24 22 21 19 17 17 17 16 15 14 14 14 13 11 11 11 9 9 8 8 7 6 5 4 5 6 6 5 4 3 3 3 3 3 2 2 2 2 2 2 2 2 1 1 2 3 5 5 6 6 5 3 3 3 3 4 5 6 6 6 7 6 5 6 7 6 6 6 5 5 5 5
27 27 27 27 28 27 28 30 30 29 29 27 26 26 24 22 21 19 18 18 17 16 15 15 14 14 12 11 11 9 9 9 8 7 6 5 4 4 5 6 5 5 3 3 3 3 3 3 2 2 1 2 2 2 2 2 2 2 4 5 5 5 7 7 5 4 4 3 4 5 5 6 6 6 6 6 5 6 6 6 6 5 5 5 5
27 27 28 28 28 28 28 30 31 30 30 29 28 27 26 24 22 21 19 19 18 17 16 16 15 14 13 12 11 10 9 9 9 8 6 5 4 4 5 5 5 4 4 3 3 3 4 3 3 2 1 1 2 2 2 2 2 2 4 4 4 3 5 7 7 5 4 3 4 6 6 6 6 6 6 5 5 6 6 6 5 6 5 4 4
29 29 29 28 29 29 27 29 31 30 30 30 29 29 27 26 23 22 20 19 18 17 17 17 16 15 14 13 12 11 11 10 10 9 7 6 5 4 5 5 4 3 3 3 3 3 4 3 3 2 2 1 2 2 3 3 3 2 4 4 4 4 3 5 6 5 4 3 4 6 7 6 6 6 6 5 5 5 5 5 5 5 5 4 4
30 30 29 28 29 30 29 29 30 31 31 31 31 30 29 27 25 23 22 20 19 18 18 17 16 15 14 14 13 12 12 11 11 10 8 6 5 5 5 5 4 3 3 3 3 3 3 3 3 2 2 1 2 2 2 3 3 3 4 4 4 3 2 4 5 5 3 3 4 5 6 7 6 6 6 6 6 5 5 4 4 5 5 4 4
30 29 30 30 30 30 30 30 30 31 31 31 32 31 30 28 26 24 23 22 20 19 18 17 16 15 14 14 13 13 13 12 12 11 9 7 6 6 5 5 4 4 3 3 3 3 2 2 2 2 2 1 1 1 2 2 2 2 3 4 4 2 2 4 5 4 3 3 3 4 5 6 7 7 6 6 6 6 6 5 4 5 5 5 5
30 31 32 31 31 30 30 30 31 32 32 32 32 32 31 29 27 26 24 23 21 19 18 17 16 15 14 13 13 13 13 13 12 12 10 9 7 7 6 5 5 4 4 4 4 3 2 2 2 1 2 1 0 0 1 2 2 1 2 2 3 2 2 4 4 3 3 3 3 4 4 5 7 8 7 6 6 6 6 5 5 4 4 5 5
32 33 32 31 31 31 31 31 32 33 33 32 32 32 32 30 28 27 26 24 22 20 19 17 16 15 14 13 13 13 13 13 13 13 11 10 8 8 7 6 6 5 5 4 4 3 2 2 2 1 1 0 1 1 1 3 3 1 1 2 2 1 3 4 3 3 2 3 3 3 4 4 5 7 7 8 8 7 7 6 6 5 5 5 5
33 33 33 33 32 32 32 32 32 34 34 33 32 32 32 31 29 28 27 25 23 21 19 18 17 16 15 13 13 14 13 13 13 13 12 10 9 8 7 7 7 6 6 5 4 4 4 3 2 1 0 1 1 1 1 3 3 2 3 3 2 3 4 3 2 2 2 3 3 3 3 3 4 5 7 8 8 8 8 7 7 6 6 6 6
33 33 34 34 34 33 33 32 32 33 34 33 32 32 31 31 29 28 28 26 24 22 20 19 18 17 16 14 14 14 14 13 13 13 12 11 10 9 8 8 8 7 6 5 4 5 5 4 3 2 1 1 1 1 1 4 4 5 4 3 3 4 4 2 1 2 2 2 2 3 3 3 4 5 6 7 8 9 9 8 7 7 7 7 6
32 33 33 34 33 32 32 32 31 32 33 33 31 30 30 29 29 28 27 27 26 23 22 21 20 18 17 15 15 15 16 15 14 13 12 11 11 10 9 9 8 7 7 6 5 5 5 4 4 3 1 1 1 1 2 5 5 5 3 2 4 4 3 2 2 2 2 2 2 3 4 4 4 4 4 5 7 8 9 9 8 8 8 7 7
32 32 33 32 33 32 32 31 31 31 31 31 30 29 28 28 29 28 28 28 28 26 24 23 21 20 18 16 16 16 17 17 15 13 13 12 12 11 10 10 9 8 8 7 6 5 5 4 5 4 3 3 1 0 3 5 4 2 1 3 3 2 3 3 2 2 2 2 3 3 4 4 4 4 3 4 5 7 7 8 8 8 8 8 7
32 33 33 33 34 34 33 33 32 31 31 32 31 31 30 29 29 29 30 30 29 28 26 25 23 21 19 17 17 17 17 18 17 15 14 13 13 12 11 11 10 9 9 7 6 5 5 5 5 5 4 4 2 1 4 5 4 2 2 3 2 2 3 3 3 3 3 3 3 4 5 5 4 4 3 4 4 5 6 7 7 8 8 8 8
33 34 35 35 35 35 35 35 34 33 34 35 34 34 34 33 32 32 32 31 30 30 28 26 24 22 20 19 18 17 18 19 18 16 15 14 14 14 12 11 10 10 9 8 7 6 6 6 6 7 6 5 2 2 6 7 4 3 4 3 1 1 3 4 4 4 4 4 5 5 5 5 5 4 4 5 5 5 6 6 7 7 7 8 8
34 35 35 35 35 36 36 35 34 35 35 36 36 36 35 35 33 31 31 29 29 30 28 25 24 22 21 19 18 18 19 19 19 18 17 16 15 15 14 13 11 11 10 9 8 7 7 7 8 8 6 6 3 3 7 7 5 6 4 2 1 2 2 5 7 6 6 6 7 6 6 6 5 5 5 6 5 5 5 6 6 6 6 7 7
33 35 36 36 36 37 37 36 36 36 36 36 36 36 34 32 31 28 26 25 25 26 26 25 24 24 23 21 20 19 19 20 19 18 18 17 17 16 15 14 13 11 10 10 10 9 8 8 9 9 7 7 5 5 8 7 6 8 5 2 1 2 1 4 6 8 8 8 8 8 8 7 7 7 6 6 6 6 6 6 6 6 6 6 6
34 36 38 38 37 38 38 38 37 36 36 37 36 34 31 29 28 24 21 21 20 21 23 24 25 25 25 24 22 20 20 20 20 19 19 18 18 17 16 15 14 13 12 11 11 9 8 8 9 10 8 8 7 5 8 8 8 10 6 3 1 1 1 2 3 6 9 10 10 10 10 9 8 8 8 7 7 7 7 6 6 6 6 6 6
36 37 39 39 38 38 39 38 37 37 37 36 36 34 31 30 28 25 22 22 21 21 24 26 27 28 27 26 24 22 22 21 21 20 19 18 18 18 18 17 16 15 13 12 11 10 9 8 9 10 9 9 8 6 8 8 8 11 9 5 3 2 3 2 0 2 5 8 10 11 11 11 10 10 9 8 8 8 8 8 7 6 6 6 6
37 38 38 39 39 38 39 39 38 37 36 36 35 34 33 31 31 30 28 27 26 27 29 29 29 29 28 26 25 24 23 22 22 21 20 19 18 18 18 18 17 16 15 13 13 11 10 9 8 9 9 9 10 8 8 9 8 10 11 8 4 3 4 5 3 1 2 4 9 12 13 13 13 13 12 10 9 9 9 9 8 7 7 6 6
36 36 37 38 39 39 39 40 38 37 36 36 36 36 34 33 33 32 30 29 29 28 29 29 28 28 28 27 26 25 24 23 22 22 21 20 19 19 19 19 19 18 17 15 14 12 10 10 9 9 10 10 11 9 8 9 9 9 11 10 6 4 5 8 8 5 2 1 4 8 12 14 15 16 15 13 12 10 9 9 9 9 8 7 6
35 36 38 38 39 39 39 39 39 37 37 36 37 37 36 35 34 33 31 30 29 27 26 26 27 26 27 27 26 25 25 24 23 23 23 23 21 20 19 19 19 19 18 17 15 13 12 11 11 10 11 11 11 11 10 10 10 10 10 11 9 5 5 7 8 8 4 2 2 3 8 12 13 16 17 16 14 12 11 9 9 9 8 8 8
36 37 37 36 37 37 37 39 39 38 37 37 38 38 38 36 35 34 32 30 29 26 25 25 25 25 25 26 26 26 26 26 25 24 24 24 23 21 20 19 19 19 19 19 17 15 13 12 12 11 11 12 12 13 12 11 10 10 10 11 11 8 6 5 7 9 6 3 3 3 7 9 9 13 15 16 16 15 13 11 10 10 9 9 9
35 35 35 36 37 37 38 39 39 38 37 38 38 39 39 37 36 35 34 32 29 26 25 25 25 26 26 27 27 27 27 27 26 25 25 25 25 24 22 20 19 19 20 20 19 17 15 14 12 12 12 12 13 14 14 13 12 11 10 11 12 12 10 7 7 10 9 6 3 3 8 10 11 14 14 14 15 15 15 15 14 13 11 10 9
Wind_Direction
150 140 136 131 127 129 132 131 129 128 125 124 122 120 120 120 120 120 121 122 123 124 125 126 127 127 128 129 128 127 126 126 127 127 126 124 122 121 119 118 117 114 112 110 108 107 105 103 100 99 99 100 102 105 108 108 109 109 107 107 111 117 114 107 105 101 98 97 96 97 97 100 100 98 101 105 108 106 103 102 104 103 99 99 99
148 142 139 134 132 137 137 133 132 129 127 125 123 122 122 123 123 123 125 125 125 126 126 127 128 130 131 129 128 127 126 127 127 126 125 123 121 119 117 116 116 114 112 111 109 108 105 102 100 100 99 98 100 102 107 108 108 106 104 106 109 111 110 105 102 100 100 96 91 96 100 101 99 99 102 104 104 104 104 103 106 103 99 97 95
145 145 143 137 136 141 139 135 133 129 128 126 124 124 124 124 124 125 125 125 125 126 127 128 128 129 128 126 125 125 126 126 125 124 123 121 118 116 116 115 114 114 111 108 106 104 102 100 100 100 99 97 100 102 102 104 106 105 104 107 106 105 104 103 102 103 104 101 95 97 102 101 101 102 101 100 102 105 106 105 104 102 99 96 93
146 147 143 139 139 144 141 137 134 131 129 126 126 125 124 124 125 126 125 125 126 126 126 125 124 124 123 123 123 123 123 122 121 120 117 114 114 114 115 115 113 110 108 106 104 101 100 99 99 99 99 98 99 100 100 102 104 103 104 105 102 100 101 101 99 100 101 103 103 104 107 102 98 100 103 104 105 107 106 104 102 102 100 97 94
146 145 143 141 143 146 142 138 136 132 131 128 128 125 125 125 125 126 125 126 126 125 125 123 123 122 122 122 121 121 119 118 117 114 112 110 110 111 112 114 112 107 104 104 102 99 99 99 98 99 99 97 96 97 99 100 102 102 102 100 99 99 99 99 98 100 103 106 107 106 108 105 101 101 105 107 106 105 104 104 104 104 102 99 97
145 143 144 144 145 146 142 139 136 133 131 129 128 127 126 125 125 124 124 125 124 124 123 122 121 120 119 118 118 117 117 116 115 113 111 109 109 111 112 111 110 107 102 102 100 97 99 99 98 98 99 96 96 98 98 99 100 99 99 99 98 97 96 98 100 105 109 108 104 101 102 106 105 104 105 105 105 104 104 108 106 103 102 101 98
145 144 147 147 146 145 143 140 136 134 131 130 130 129 127 126 125 124 125 124 123 122 120 119 118 117 115 115 116 115 116 115 113 111 108 108 112 115 113 110 110 108 103 102 100 97 97 100 97 97 99 97 96 97 98 98 97 97 98 99 99 98 98 100 104 107 108 104 98 95 97 103 106 104 105 105 105 105 106 106 103 102 102 101 100
147 148 149 149 147 146 145 141 138 136 133 132 131 130 128 127 126 126 125 123 122 120 119 118 116 116 115 115 116 115 115 112 110 107 104 108 113 113 112 113 111 106 103 102 99 97 97 100 99 96 98 98 98 96 95 95 96 97 97 98 100 100 101 103 107 109 106 100 96 94 95 102 107 103 104 104 103 107 106 103 103 105 103 102 102
150 150 151 150 149 148 146 143 140 138 136 134 133 131 129 129 128 127 126 123 122 121 121 118 117 117 115 115 115 115 112 108 107 104 102 103 103 105 108 112 110 105 105 101 97 99 101 103 100 97 97 98 98 95 95 96 97 98 97 98 99 100 104 107 109 109 103 99 95 93 93 100 108 105 103 103 105 109 106 107 109 108 105 102 100
152 152 152 152 150 150 148 144 142 140 138 136 135 133 131 131 129 128 127 124 123 122 122 119 118 116 115 115 114 113 110 108 107 104 102 101 101 103 107 109 109 108 109 104 98 99 104 105 99 95 98 100 98 97 99 99 98 99 100 101 99 102 110 114 113 108 101 97 94 91 89 96 106 105 104 103 107 107 104 110 109 104 102 99 99
154 154 154 153 151 151 149 145 143 141 139 138 137 135 134 132 130 128 127 125 124 123 121 120 118 116 115 113 112 111 111 111 109 106 105 105 104 103 103 104 108 109 109 105 101 99 102 104 99 96 100 102 99 97 98 97 99 101 103 104 102 107 113 117 117 110 103 98 95 93 90 92 100 104 106 104 103 101 103 109 107 102 98 97 100
155 155 156 155 153 151 150 146 144 142 140 139 138 137 135 133 131 128 126 125 123 122 122 120 118 116 114 110 110 109 109 110 109 109 107 105 102 102 103 104 109 109 106 102 99 96 96 101 103 107 104 102 101 98 98 99 100 102 105 104 104 108 112 117 117 112 107 102 98 97 96 96 99 101 104 103 103 102 106 111 108 104 100 99 104
156 157 158 156 155 153 151 148 146 144 142 141 140 138 135 133 131 128 126 125 125 124 124 122 121 118 115 112 110 107 108 109 107 106 105 104 102 104 105 103 105 107 107 102 99 95 95 104 112 115 105 99 100 98 100 101 102 106 109 108 106 108 112 116 117 114 109 104 101 98 96 100 103 102 101 104 108 111 114 113 110 107 103 105 109
158 159 159 159 157 155 153 151 148 146 144 143 143 139 136 134 132 130 129 128 128 127 127 125 124 121 118 115 113 110 109 107 105 104 103 104 104 104 104 103 104 106 108 106 105 102 103 111 115 114 105 97 91 90 97 102 105 110 113 114 112 111 114 115 114 113 110 107 105 99 96 99 104 105 104 105 110 117 117 115 113 109 107 110 112
160 159 160 162 158 156 155 153 151 148 148 146 144 141 138 138 135 134 132 131 130 130 130 128 126 124 120 117 115 113 108 106 106 107 105 104 105 104 104 105 104 105 107 107 108 108 111 114 114 114 110 103 93 89 93 98 103 108 114 117 117 115 115 115 113 112 112 111 106 99 97 99 104 107 107 104 109 116 119 120 118 111 110 112 112
160 159 161 163 159 157 157 156 154 152 150 149 146 144 143 141 139 137 135 135 133 134 133 130 128 124 121 117 116 114 110 111 109 109 107 105 106 106 108 107 106 107 109 110 110 109 111 112 113 115 116 112 103 100 100 100 102 106 112 115 118 119 119 118 116 114 112 110 105 99 98 100 103 107 111 110 111 118 124 126 121 114 114 115 113
160 160 163 163 160 159 159 158 156 155 153 151 149 148 146 144 142 140 140 139 137 138 136 132 129 124 122 118 118 117 115 114 110 109 108 107 107 108 109 109 110 111 111 111 111 111 109 108 110 115 117 114 109 108 111 111 111 113 114 114 117 121 126 124 119 117 112 107 103 98 94 94 98 104 114 116 114 121 129 129 122 118 119 119 118
160 162 164 163 162 161 161 159 159 159 156 154 153 152 149 147 144 144 143 141 140 139 138 134 128 125 124 122 120 119 119 116 111 110 109 110 108 106 105 106 110 110 111 112 111 109 105 105 107 109 112 112 110 108 110 112 114 115 110 111 116 122 129 128 125 123 114 107 103 99 94 90 92 97 107 113 115 120 125 125 123 121 120 120 119
162 164 165 165 164 163 162 162 163 162 161 159 157 156 152 151 148 147 146 143 142 139 139 135 129 127 125 124 123 121 120 117 115 113 111 112 108 105 102 99 100 102 108 109 108 107 104 104 103 104 106 106 106 104 105 106 109 110 107 109 114 120 127 130 129 127 120 112 106 103 101 96 93 93 99 105 114 119 119 121 125 126 122 119 116
164 166 167 168 167 165 165 165 167 164 165 164 161 160 156 156 153 152 149 145 143 140 140 137 133 130 127 127 127 127 124 122 120 118 117 117 111 105 101 97 96 97 100 101 101 103 104 102 102 102 101 100 101 100 99 101 105 106 106 109 111 116 123 128 132 133 130 122 115 110 105 102 101 101 100 103 109 113 114 120 130 132 128 125 120
167 169 169 170 170 168 169 168 169 168 169 167 166 163 159 161 159 157 155 151 146 142 143 140 139 134 132 135 138 138 133 130 128 126 128 124 117 103 99 100 100 98 96 98 100 102 102 101 101 101 99 99 103 102 97 98 103 107 108 105 104 110 116 124 134 139 142 136 127 118 109 104 103 103 102 102 106 106 108 113 126 133 135 135 132
170 172 172 173 173 172 172 172 171 172 172 171 170 165 163 166 164 164 162 158 152 146 149 145 144 140 139 144 145 146 139 136 137 136 138 133 125 112 107 109 105 101 98 98 98 101 101 99 98 97 99 100 110 113 105 98 99 109 108 96 96 106 112 121 131 141 149 146 138 129 120 113 107 102 98 97 100 104 106 106 114 126 135 143 145
172 174 175 176 177 175 175 175 174 175 175 175 173 168 169 171 169 169 168 167 163 157 158 154 155 152 150 151 149 148 140 136 136 136 144 143 135 126 121 122 117 110 111 109 103 103 102 100 96 95 100 98 109 114 109 104 103 105 91 79 94 106 108 116 126 140 151 154 151 142 134 128 122 114 105 99 96 98 102 104 107 112 125 139 148
175 176 176 178 180 178 178 178 178 178 178 178 176 173 175 176 174 173 173 173 172 168 168 167 166 163 157 158 156 149 141 138 137 139 153 156 151 145 141 142 138 133 131 127 121 116 114 112 106 102 104 96 101 105 103 101 102 95 68 57 79 98 107 115 124 138 149 159 160 155 150 146 139 131 123 112 103 99 98 99 103 104 112 131 148
175 176 177 180 182 181 181 181 182 182 181 181 179 179 180 180 179 179 179 179 179 178 177 175 170 166 162 162 162 152 145 145 145 147 160 168 167 163 165 166 159 154 145 135 131 128 129 130 122 115 116 107 100 104 104 98 85 60 36 29 38 72 103 119 129 139 149 160 164 165 163 155 149 144 138 129 115 108 105 102 103 105 106 119 145
177 178 180 181 184 184 184 183 185 186 185 185 183 184 185 185 185 185 186 187 186 184 183 179 172 168 167 168 165 158 153 152 148 148 161 176 180 178 181 182 171 162 153 142 138 134 136 134 125 123 131 134 126 128 159 204 289 337 351 352 348 4 78 121 137 145 151 161 170 174 174 165 158 156 146 139 131 120 116 114 112 112 112 115 136
178 181 181 182 185 186 187 187 187 189 189 189 188 189 191 191 190 191 193 194 191 188 186 183 178 174 174 177 172 166 166 161 153 148 157 175 184 188 190 189 182 169 158 152 153 147 140 135 133 136 138 146 146 150 169 184 289 315 321 319 314 308 297 164 155 172 171 170 180 182 184 179 168 166 154 145 146 137 127 125 122 121 124 119 124
180 183 183 183 186 188 188 189 190 192 192 192 192 194 196 195 195 195 198 199 195 189 187 186 184 184 184 186 182 177 179 175 164 156 158 166 176 186 188 190 187 177 170 173 186 184 164 151 146 157 152 152 151 151 154 149 245 303 305 302 293 286 278 248 193 192 205 195 193 192 194 190 175 170 165 158 158 150 141 140 134 130 133 130 126
183 184 185 185 188 189 189 191 193 194 195 195 195 197 199 199 199 199 200 201 199 191 188 190 190 193 195 193 191 188 187 184 176 171 173 175 177 185 187 188 190 190 189 193 205 201 195 191 172 177 166 154 157 166 170 171 217 283 300 300 285 272 264 253 226 197 210 211 204 200 198 202 185 171 175 178 167 159 156 154 148 142 142 140 139
186 186 187 187 189 190 191 194 195 197 198 198 198 199 201 201 202 202 202 202 200 195 193 194 195 199 201 199 197 195 195 193 189 189 191 193 194 195 197 196 199 204 201 195 208 214 215 217 208 207 182 168 188 205 204 206 223 279 312 314 300 270 254 250 242 213 210 214 209 204 203 212 201 179 179 184 175 169 170 169 164 158 152 147 146
188 189 190 190 190 192 194 195 197 199 200 200 201 202 203 203 203 203 203 203 201 198 197 198 199 203 204 203 203 202 204 202 200 202 203 208 208 206 206 200 199 205 207 202 204 218 227 227 223 226 234 208 212 231 231 230 238 299 322 320 320 289 253 245 243 230 221 222 214 207 206 211 208 196 188 184 181 183 182 183 180 169 165 159 154
191 191 192 191 192 194 195 196 198 200 202 203 203 204 206 205 205 204 204 204 203 202 201 201 202 204 206 206 208 209 210 210 211 211 212 218 218 215 210 197 187 186 190 194 200 221 231 229 228 237 260 246 226 234 233 233 246 305 320 319 330 318 272 246 243 238 231 233 223 211 211 214 213 207 201 197 192 194 193 196 199 183 176 178 178
192 193 193 193 194 196 196 198 200 201 204 205 206 207 208 208 207 206 205 205 206 205 205 205 205 206 208 208 211 214 216 217 218 220 223 228 227 224 216 198 186 180 178 192 209 225 232 232 242 260 276 267 245 228 212 219 242 291 307 320 332 327 289 252 247 244 245 252 236 220 215 215 218 214 212 211 202 203 204 204 212 200 186 191 201
191 192 194 195 196 196 197 199 200 203 206 207 209 210 210 211 210 209 208 208 209 209 208 210 209 209 210 211 214 217 220 221 221 224 228 230 229 225 218 204 199 204 203 208 211 214 226 232 245 271 283 279 253 198 168 190 222 270 292 310 313 317 284 250 249 247 253 261 247 233 222 217 220 221 218 214 209 211 215 213 213 207 200 204 213
190 192 195 196 196 197 198 199 201 204 207 208 210 212 213 214 213 212 211 210 211 212 213 215 214 212 213 215 217 219 221 222 223 226 230 230 228 224 215 205 204 208 205 205 207 208 220 233 239 272 291 293 251 114 117 152 178 224 276 296 293 301 263 243 242 242 252 257 246 238 235 225 221 222 221 219 218 219 221 224 221 212 214 219 222
192 193 195 196 197 198 199 200 202 205 207 210 211 214 216 216 216 216 215 214 213 215 217 220 220 217 216 219 221 222 222 223 225 226 228 228 227 223 214 205 204 200 194 197 204 211 224 244 256 280 305 67 68 36 112 152 162 189 257 285 283 257 234 236 239 242 250 249 243 242 248 246 232 225 224 225 227 228 226 228 230 224 223 229 234
194 195 194 195 197 199 200 201 203 205 208 211 212 214 217 218 219 219 219 218 216 217 220 223 224 221 220 223 224 225 224 223 224 225 225 224 227 225 214 206 206 201 197 201 211 220 227 241 261 269 249 88 76 8 162 171 189 232 282 301 278 238 235 231 230 250 256 249 248 252 257 262 250 232 226 228 230 233 233 232 234 232 232 236 241
196 196 196 197 197 198 200 202 204 206 208 210 212 215 217 219 220 221 222 222 220 220 222 225 225 224 225 227 229 229 225 223 222 224 223 222 226 226 217 210 211 210 207 213 225 228 227 232 244 248 274 76 50 339 208 193 219 257 290 294 230 234 245 238 235 274 273 263 259 260 265 265 257 243 235 235 233 234 234 235 237 236 237 242 246
197 198 198 198 198 199 200 202 204 206 207 210 212 214 217 219 221 222 224 225 223 221 224 226 225 227 229 230 234 232 226 223 221 222 222 221 224 226 222 216 217 219 216 219 226 227 229 233 234 235 245 230 319 336 190 194 224 266 288 188 194 229 239 232 253 289 284 273 268 263 267 264 260 258 252 245 238 234 234 237 242 240 241 246 252
198 198 198 198 199 199 199 201 203 205 205 206 208 211 214 217 219 221 223 225 225 223 224 226 226 229 232 234 236 235 229 224 222 224 223 223 224 224 224 222 224 226 224 225 227 231 241 246 240 237 235 226 251 292 174 192 214 254 86 154 176 213 228 234 249 273 275 270 272 273 275 271 269 272 269 257 242 238 238 241 244 244 246 251 255
198 198 197 198 199 199 199 200 202 203 203 203 205 207 210 213 215 218 221 224 223 223 224 225 226 229 233 237 238 236 231 226 225 226 225 225 225 224 224 225 228 230 232 235 236 243 250 248 242 238 234 222 224 160 167 187 205 168 117 147 177 207 221 246 256 260 259 260 272 275 283 285 283 285 280 273 257 247 244 243 246 247 250 257 261
196 198 198 198 200 200 201 201 200 201 203 204 205 206 210 212 213 216 219 222 222 222 222 223 225 227 232 236 237 237 233 230 229 229 229 229 227 225 224 226 231 233 236 239 240 245 243 238 234 235 236 217 202 147 166 179 197 182 144 127 56 278 243 254 254 255 255 260 271 274 286 296 297 295 284 280 274 262 255 249 249 251 255 260 264
196 198 199 199 199 200 202 202 201 201 204 205 206 207 211 213 215 217 218 220 221 222 223 223 225 227 231 233 235 236 234 233 232 232 233 232 231 230 228 229 233 235 238 239 238 239 235 235 232 234 236 217 190 147 173 186 187 161 127 97 22 345 289 272 258 252 254 257 265 270 279 290 295 294 284 280 277 268 262 257 255 256 258 261 263
197 197 199 198 199 201 202 201 202 203 203 205 207 208 210 212 216 219 220 219 220 223 226 228 230 231 231 231 231 233 235 235 234 235 235 236 236 235 234 235 235 237 241 240 237 234 232 236 234 231 232 220 200 164 178 196 192 169 128 74 40 29 302 284 271 256 256 258 263 268 271 279 287 288 286 284 280 272 266 263 266 265 261 261 262
197 198 198 198 199 201 202 202 202 203 204 205 206 206 206 208 211 213 216 216 218 222 223 227 230 231 232 229 227 230 235 236 236 237 237 238 240 239 240 240 239 239 239 240 238 236 236 238 233 227 230 224 214 192 184 188 195 192 176 139 107 7 237 276 296 263 258 258 260 264 267 272 279 284 287 287 282 277 274 272 272 272 271 268 266
199 199 198 199 200 201 202 202 202 203 205 205 204 203 203 203 203 202 203 205 208 214 218 222 226 227 228 227 226 230 234 237 238 238 238 240 242 243 243 243 242 239 238 242 240 238 238 238 231 225 227 223 217 215 202 195 196 200 201 194 193 230 213 180 75 289 274 261 256 260 264 267 271 276 279 281 284 280 279 282 279 277 279 277 273
200 199 198 199 200 201 201 202 202 203 204 204 203 202 201 202 202 202 203 203 205 211 217 222 225 226 226 225 227 230 234 238 239 239 239 241 242 243 243 243 243 240 238 241 240 239 239 237 236 230 228 223 217 219 211 209 212 207 209 211 216 252 227 199 190 207 313 271 255 256 259 263 265 267 270 272 276 280 281 284 287 287 285 283 278
199 197 197 199 199 200 201 201 202 203 203 203 201 201 201 202 203 204 206 208 210 213 217 220 224 226 225 225 228 230 233 237 240 240 239 239 241 242 242 242 242 239 237 238 240 242 242 239 239 236 234 229 223 226 219 215 220 215 212 216 235 276 238 217 221 210 161 287 266 260 257 258 259 259 262 264 266 271 277 283 289 293 292 287 281
199 198 198 198 199 199 199 200 201 202 202 201 201 202 203 203 204 205 206 210 214 216 217 218 220 222 223 224 227 229 232 234 238 241 239 239 240 241 242 242 241 240 237 238 240 242 244 242 241 239 239 236 229 231 231 228 230 226 225 229 239 255 231 223 227 212 186 198 248 267 257 257 260 256 254 257 261 264 268 276 283 287 292 290 285
200 199 198 198 197 198 198 199 200 201 201 201 200 202 203 204 205 205 206 210 213 215 216 217 217 219 220 222 225 228 230 232 235 239 239 239 239 240 241 242 242 242 240 240 241 241 243 242 243 242 242 243 237 234 234 237 242 241 242 241 237 234 224 217 211 205 201 213 226 260 253 247 254 258 256 256 258 261 263 266 269 272 279 284 285
200 199 197 197 196 197 198 199 200 200 200 200 200 202 203 204 205 206 208 209 210 210 212 214 216 217 219 221 225 228 229 231 234 237 238 238 239 239 240 241 243 243 242 242 242 242 242 242 242 243 243 244 242 238 237 239 245 250 252 251 246 240 238 241 233 218 212 213 219 253 251 242 243 254 260 260 259 261 261 260 260 261 268 274 277
Height
806 806 807 808 810 811 813 813 814 815 816 817 818 819 819 821 822 822 823 824 825 826 827 828 829 830 831 831 833 833 835 836 836 837 838 838 839 840 840 840 840 840 840 840 840 840 841 841 842 842 841 842 842 842 842 842 842 842 842 842 842 842 842 843 843 843 843 843 844 845 845 845 846 846 846 846 846 847 849 849 849 849 849 850 850
806 808 809 810 811 813 815 815 816 816 817 818 819 820 821 822 823 824 824 825 826 827 828 829 830 831 831 832 833 834 835 836 837 837 838 839 839 840 840 841 840 841 841 841 841 842 842 842 843 842 842 842 842 842 842 842 842 842 842 842 842 843 843 843 844 844 844 845 845 846 846 846 847 847 847 847 848 848 850 851 851 850 850 851 851
807 809 810 811 813 814 816 816 817 817 818 819 820 821 822 823 824 825 825 826 827 828 829 830 831 831 832 833 834 835 836 836 837 838 838 839 840 841 841 841 841 841 842 842 843 843 843 843 844 843 844 843 843 843 843 843 843 843 843 843 843 843 844 844 844 844 845 845 846 846 846 847 847 847 848 848 849 850 852 852 852 851 851 852 852
809 810 812 813 814 816 817 818 818 819 820 820 822 822 823 824 825 826 827 828 828 829 830 831 832 832 833 834 835 836 836 837 838 838 839 840 840 841 841 841 841 842 843 843 844 844 844 844 845 845 845 844 844 844 844 844 844 844 844 844 844 845 845 845 845 845 845 846 846 847 847 847 848 848 849 849 850 851 853 853 853 852 852 853 853
810 811 812 814 816 817 818 819 819 820 821 822 823 824 825 825 826 827 828 829 829 830 831 832 833 833 834 835 836 836 837 838 838 839 840 841 841 841 841 841 842 843 844 844 845 845 844 845 846 846 846 845 845 845 845 845 845 845 845 845 846 846 846 846 846 846 846 847 847 848 848 848 849 849 850 851 851 852 853 853 853 853 853 853 854
810 811 813 815 817 818 818 819 820 821 822 823 824 825 826 826 827 828 829 830 830 831 832 833 833 834 835 836 837 837 838 838 839 840 841 842 842 842 842 842 843 844 844 845 845 846 846 846 847 847 847 847 847 847 846 846 846 847 847 847 847 847 847 847 847 847 847 848 849 849 849 850 850 850 851 852 853 853 853 853 853 854 854 854 855
810 812 814 816 817 818 819 819 820 822 823 824 825 826 827 828 828 829 830 831 832 832 833 834 834 835 836 837 838 838 839 839 840 841 842 842 842 843 843 843 844 844 845 846 846 846 847 848 848 848 848 848 848 848 848 848 848 848 848 848 848 849 848 848 848 848 848 849 849 850 850 851 851 851 852 853 853 854 854 854 854 855 855 856 856
812 813 815 817 818 819 820 820 822 823 824 825 826 827 828 829 829 830 831 832 833 833 834 835 836 836 837 838 839 839 840 840 841 842 843 842 842 843 844 845 845 845 846 847 847 847 848 849 849 849 849 849 849 849 850 850 850 850 850 850 850 850 850 849 849 849 850 850 850 851 851 852 852 852 853 853 854 855 855 855 855 856 856 857 857
813 814 816 818 819 820 821 822 823 824 825 826 827 828 829 830 831 831 832 833 834 834 835 836 837 838 838 839 839 840 841 841 842 843 844 843 843 844 845 846 846 847 847 847 848 848 849 850 850 850 850 850 850 850 851 851 851 851 851 851 851 851 851 850 850 850 851 851 852 852 852 853 853 854 855 855 855 856 855 856 856 857 858 858 858
813 815 817 819 820 821 822 823 824 825 826 827 828 829 830 831 832 833 834 834 835 836 836 837 838 839 839 840 840 841 842 842 843 844 844 845 845 846 846 847 847 848 848 848 849 849 850 851 850 851 851 851 852 852 852 852 852 853 852 852 852 852 852 851 851 851 852 853 853 853 854 854 855 855 856 857 857 857 857 858 858 859 859 860 860
814 816 818 819 821 822 823 824 825 826 827 828 829 830 831 832 833 834 835 835 836 837 838 838 839 840 841 841 842 842 843 843 844 845 846 846 847 847 847 848 848 849 849 849 850 851 851 851 851 852 852 852 853 853 853 853 854 854 854 854 853 853 853 853 852 852 853 854 854 854 855 856 856 857 858 858 858 859 859 860 860 860 861 861 862
814 816 818 820 821 823 824 825 826 827 828 829 830 831 832 833 834 835 836 837 837 838 839 839 840 841 842 843 843 843 844 844 845 846 847 848 848 848 848 849 849 849 849 850 850 851 851 851 852 853 853 853 854 854 854 854 854 855 855 855 855 855 854 854 854 854 854 855 855 856 856 857 857 858 858 859 859 860 860 861 861 861 862 862 863
815 817 819 821 822 823 824 825 827 828 829 830 831 832 833 834 835 836 837 838 839 839 840 841 841 842 843 844 844 844 845 846 846 847 848 849 849 849 849 850 850 850 850 850 851 852 852 853 854 855 854 854 854 855 856 855 855 856 856 857 856 856 856 855 855 855 855 856 856 857 857 858 858 859 859 860 860 861 861 862 862 862 863 864 865
815 817 819 821 822 824 825 827 828 829 830 831 833 833 834 835 836 837 838 839 840 840 841 842 843 844 844 845 846 846 846 847 848 848 849 850 850 850 851 851 851 852 852 852 853 853 854 855 856 856 856 855 854 855 856 856 857 857 858 858 858 857 857 856 856 856 857 857 858 858 859 859 859 860 860 861 861 861 862 863 864 864 865 865 866
816 818 820 822 823 825 826 828 829 830 831 832 834 834 836 837 837 838 839 840 841 842 842 843 844 845 845 846 847 847 848 848 849 850 850 851 851 852 852 852 853 853 854 854 855 855 856 856 857 857 857 857 856 856 856 856 857 857 858 859 859 858 858 857 857 857 858 859 859 860 860 860 861 861 861 862 862 862 863 864 865 865 866 867 867
817 819 821 823 824 826 827 829 830 831 832 834 835 836 837 838 839 839 840 841 842 843 843 844 845 846 846 847 848 848 849 849 850 851 851 852 852 853 853 854 854 855 855 856 856 856 857 857 858 858 858 858 859 859 857 857 857 858 859 860 860 859 859 859 859 859 859 860 861 861 861 862 862 862 863 863 864 864 865 866 867 867 867 868 868
819 820 822 823 825 826 828 829 831 832 833 835 836 837 838 839 840 840 841 842 843 844 844 845 846 846 848 848 849 850 850 851 851 852 853 853 853 854 854 855 855 856 856 857 857 857 858 858 858 859 859 860 860 860 860 859 859 860 860 861 861 861 861 861 860 860 861 861 862 863 863 863 863 863 864 864 865 865 866 867 868 868 869 869 870
819 821 823 824 825 827 829 830 832 833 834 835 837 838 839 840 841 841 842 843 844 845 845 846 847 848 849 850 850 851 852 852 853 853 854 854 855 855 855 856 856 857 857 857 858 858 858 859 859 859 860 860 861 861 861 861 861 861 861 861 862 862 862 862 862 862 862 863 863 864 864 864 864 864 865 865 866 866 867 867 868 869 869 870 871
820 822 823 825 826 828 829 831 832 833 835 836 838 839 840 841 842 843 843 844 845 846 846 847 848 849 850 851 852 852 853 853 854 854 855 856 856 856 857 857 857 858 858 858 859 859 859 860 860 860 860 861 861 861 862 862 862 862 862 863 863 863 864 864 864 864 864 864 864 865 865 866 866 866 866 867 867 867 868 869 869 870 870 870 871
821 823 824 826 826 828 829 831 833 834 836 837 838 839 841 842 843 844 844 846 846 847 848 848 849 850 851 852 853 853 854 854 855 855 856 857 857 858 858 858 859 859 859 860 860 860 860 861 861 861 861 861 862 862 862 862 863 863 863 864 864 864 865 865 865 866 866 866 866 866 866 867 867 868 868 868 868 869 869 870 870 871 871 871 872
822 823 824 826 827 829 830 831 833 834 836 837 839 840 841 843 843 845 845 847 847 848 848 849 850 851 852 853 853 854 854 855 856 856 857 858 858 859 859 860 860 860 860 861 861 861 861 862 862 862 862 862 863 863 863 863 864 864 864 865 865 865 866 866 867 867 867 867 867 867 867 867 868 868 869 869 870 870 871 871 872 872 872 873 873
821 823 825 826 827 829 830 832 833 835 836 838 839 840 842 843 844 845 846 847 848 849 849 850 851 852 853 853 854 855 855 856 856 857 858 858 859 860 860 861 861 861 862 862 862 862 862 863 863 863 863 863 864 864 864 864 865 865 865 866 866 867 867 867 868 868 869 869 869 869 869 869 869 869 869 869 870 871 871 872 872 873 873 874 874
820 822 824 826 827 829 830 832 833 835 837 838 840 841 842 843 844 846 847 848 848 849 850 851 852 852 853 854 855 856 856 857 857 858 859 859 860 860 861 862 862 862 862 863 863 863 863 864 864 864 864 864 865 865 865 865 866 866 867 867 867 868 868 868 869 869 870 870 870 870 870 870 870 870 870 870 870 871 871 872 873 873 874 874 875
819 821 823 825 827 828 830 832 833 835 837 838 840 841 842 843 845 846 847 848 849 850 851 852 852 853 854 855 856 856 857 857 858 859 859 860 860 861 861 862 862 862 863 863 864 864 864 865 865 865 865 865 866 866 866 867 867 867 868 868 868 869 869 869 869 870 870 871 871 872 871 872 872 872 872 872 872 872 872 873 873 874 874 874 875
819 821 823 825 826 828 830 832 834 835 837 838 840 841 842 843 845 846 847 848 849 850 851 852 853 854 854 855 856 857 857 858 858 859 860 860 861 861 862 862 862 863 863 864 864 865 865 866 866 866 866 866 867 867 867 868 868 868 868 869 869 869 870 870 870 871 871 872 872 873 873 873 873 873 874 874 874 873 873 874 874 874 875 875 875
819 821 822 824 826 828 830 831 834 835 837 838 840 841 842 843 845 846 847 848 849 850 851 852 853 854 855 856 856 857 858 858 859 859 860 860 861 862 862 863 863 863 864 864 865 865 866 866 867 867 867 867 867 868 868 868 869 869 869 869 870 870 870 871 871 872 872 873 873 873 874 874 875 875 875 875 875 875 875 875 875 876 876 876 876
818 820 822 824 825 827 829 831 833 835 837 839 840 841 842 843 845 846 847 848 849 850 852 852 853 854 855 856 857 857 858 858 859 859 860 861 861 862 863 863 863 864 864 865 866 866 867 867 867 867 868 868 868 869 869 869 869 869 870 870 870 870 871 871 872 872 873 873 873 874 875 875 876 876 876 876 877 876 876 876 877 877 877 877 877
817 819 821 823 825 827 829 831 833 835 837 838 840 841 842 843 845 846 847 848 849 850 851 852 854 854 855 856 857 858 858 859 859 859 860 861 862 862 863 864 864 865 865 865 866 866 867 867 868 868 868 868 869 869 869 869 870 870 870 870 870 870 871 871 872 872 873 873 874 874 875 875 876 876 876 877 877 877 877 877 877 878 878 878 878
816 818 820 822 824 826 828 830 832 835 836 838 840 841 842 843 844 846 847 848 849 850 851 852 853 855 856 857 857 858 858 859 859 860 861 861 862 863 863 864 864 865 865 866 866 867 867 867 868 868 868 869 869 869 870 870 870 870 870 870 870 870 870 871 872 873 873 873 874 874 875 876 876 876 877 877 877 878 878 878 878 879 879 879 879
816 818 820 821 823 825 827 830 832 834 836 838 839 841 842 843 844 845 847 848 849 850 851 852 853 855 856 857 858 858 859 859 860 860 861 862 863 863 864 864 865 865 865 866 866 867 867 868 868 868 868 869 869 869 870 870 870 871 870 870 870 870 870 871 872 873 873 874 874 874 875 876 876 876 877 877 878 878 878 878 879 879 879 880 880
816 817 819 821 823 825 827 829 831 834 836 837 839 840 841 842 844 845 847 848 849 850 851 852 853 854 856 857 858 858 859 860 860 861 861 862 863 863 864 864 865 865 865 866 866 867 867 868 868 868 869 869 869 869 870 870 870 871 870 870 870 870 870 870 871 872 873 874 874 875 875 876 876 876 877 878 878 878 878 879 879 879 880 880 880
814 815 818 820 822 824 826 828 831 833 835 837 838 840 841 842 844 845 846 848 849 850 851 852 853 855 856 857 858 858 859 860 860 861 862 863 863 864 864 864 865 865 866 866 866 867 867 868 868 868 869 869 869 869 870 870 870 871 870 870 870 870 870 870 871 872 873 874 874 875 875 876 876 876 877 878 878 878 879 879 880 880 880 880 881
812 815 817 819 821 823 825 828 830 832 834 836 837 839 840 842 843 844 846 847 849 850 851 852 853 855 856 857 858 858 859 860 861 861 862 863 863 864 864 864 865 865 866 866 867 867 867 868 868 868 869 869 869 869 870 870 871 871 871 870 870 870 870 870 871 872 873 874 874 875 875 876 876 877 877 878 878 878 879 879 880 880 880 880 881
811 814 816 818 821 822 825 827 829 831 833 835 837 838 840 841 843 844 846 847 848 850 851 852 853 854 856 856 858 858 859 860 860 861 862 863 863 864 864 865 865 865 866 867 867 867 868 868 868 869 869 869 869 869 870 870 871 871 871 871 870 870 870 871 871 872 873 874 874 874 875 876 876 877 877 878 878 878 879 879 879 880 880 880 881
809 812 814 817 819 821 824 826 828 830 832 834 835 837 839 841 842 843 845 847 848 849 851 852 853 854 855 856 857 858 859 859 860 861 862 863 864 864 864 865 865 866 866 867 867 868 868 868 869 869 869 869 869 869 870 870 871 871 871 871 870 871 871 871 872 873 873 874 874 874 875 876 876 877 877 878 878 878 879 879 879 880 880 880 880
807 809 813 816 819 820 822 824 826 828 830 832 834 836 838 840 842 843 844 846 847 849 850 852 853 854 855 856 857 858 858 859 860 861 862 863 863 864 865 865 866 866 867 867 868 868 868 869 869 869 870 869 869 870 870 871 871 871 871 871 871 871 871 871 872 873 874 874 874 875 875 876 876 877 877 878 878 878 879 879 879 879 879 880 880
805 808 811 813 816 819 821 823 825 827 829 831 833 835 837 839 841 843 844 845 847 848 850 851 852 854 855 856 857 857 858 859 859 860 861 862 863 864 865 865 866 866 867 867 868 868 869 869 869 870 870 870 870 870 871 871 871 871 871 871 871 871 871 872 873 873 874 874 874 875 875 876 876 877 877 877 878 878 878 879 879 879 879 879 880
804 807 809 811 814 817 819 821 824 826 828 830 832 835 837 839 840 842 844 845 846 848 849 851 852 853 854 855 856 857 858 858 859 860 861 862 863 864 865 865 866 866 867 867 868 869 869 869 869 870 870 870 870 871 871 871 871 871 871 871 871 871 872 873 873 874 874 874 875 875 875 876 876 877 877 877 877 878 878 878 879 879 879 879 879
803 806 808 810 813 816 818 820 823 824 827 829 832 834 836 838 840 841 843 844 845 847 848 849 851 852 853 854 856 856 857 858 859 859 860 862 862 864 864 865 866 866 867 868 868 869 869 869 870 870 870 871 871 871 871 871 871 871 871 871 871 872 873 873 874 874 874 875 875 875 876 876 876 876 877 877 877 877 878 878 878 879 879 879 879
801 804 807 809 812 814 817 819 821 823 826 828 831 833 835 836 838 840 841 842 844 846 847 848 850 851 852 854 855 856 857 857 858 859 860 861 862 863 864 865 866 866 867 868 868 869 869 869 870 870 871 871 871 871 871 872 871 871 871 871 872 873 873 874 874 875 875 875 875 876 876 876 877 876 876 876 877 877 877 878 878 878 879 879 879
799 802 804 806 809 811 814 816 819 822 824 826 828 830 831 833 835 837 838 840 842 844 845 847 848 850 852 853 854 855 856 857 858 858 859 860 861 862 863 864 865 866 867 867 868 869 869 869 869 870 871 871 872 871 872 872 872 872 872 872 873 873 874 874 875 875 875 875 875 876 876 876 876 876 876 876 876 876 877 877 878 878 878 878 878
795 798 800 803 806 809 811 813 816 819 820 822 824 826 828 830 832 833 835 838 840 842 844 846 848 849 851 852 853 854 855 856 857 858 859 860 861 862 863 864 865 865 866 867 868 868 869 869 869 870 871 871 872 872 872 872 872 873 873 873 874 874 874 874 875 875 875 875 875 876 876 876 876 876 876 876 876 876 877 877 877 877 878 878 878
792 795 798 801 804 806 808 811 813 815 817 820 822 824 826 828 831 832 834 837 839 841 843 845 847 849 850 851 852 853 854 855 856 857 858 859 860 861 862 863 864 865 866 866 867 868 868 869 869 869 870 871 872 872 872 872 872 873 874 875 876 876 876 875 874 875 875 875 875 876 876 876 876 876 876 876 876 876 876 877 877 877 877 877 877
789 791 794 797 800 802 805 808 810 813 815 817 819 822 825 828 831 833 835 837 838 840 843 845 846 847 848 849 851 852 853 854 856 856 857 858 859 860 861 862 864 864 865 866 866 867 868 868 868 869 869 870 871 872 872 873 872 873 875 877 878 879 879 876 874 874 875 875 875 875 876 876 876 876 876 876 876 876 876 876 876 876 877 877 877
784 786 789 793 796 798 802 805 808 810 812 815 818 821 825 828 830 833 835 837 838 840 841 842 844 845 846 848 849 851 852 853 855 856 856 857 859 860 861 862 863 864 865 865 866 867 867 868 868 868 869 870 870 871 872 873 873 873 874 876 878 880 880 877 875 875 874 874 875 875 875 875 875 875 875 876 876 876 876 876 876 876 876 876 877
779 782 786 789 792 796 799 802 805 808 810 813 816 820 822 825 828 830 832 834 836 837 837 839 840 842 844 846 848 850 851 852 853 855 856 857 858 859 860 861 862 863 864 865 865 866 867 867 868 868 869 869 870 871 871 872 873 873 873 874 875 877 876 876 877 877 874 873 874 874 874 875 875 875 875 875 875 875 875 875 876 876 876 876 876
775 779 783 787 790 793 796 799 802 805 808 811 814 817 820 822 825 826 828 830 832 833 834 837 838 841 843 845 847 849 850 851 852 854 855 856 857 858 859 860 861 862 863 864 865 865 866 867 867 868 868 869 870 870 870 871 872 873 873 873 873 874 874 874 876 877 877 875 873 874 874 874 875 875 875 875 875 875 875 875 875 876 876 876 876
773 778 781 783 786 790 793 796 800 803 806 809 812 814 817 820 822 824 826 828 829 831 833 835 838 840 842 844 846 847 849 850 852 853 854 855 856 856 857 858 859 861 862 863 864 865 866 867 867 867 868 868 869 869 870 871 871 872 872 873 873 873 873 873 873 874 876 877 875 874 874 874 874 874 874 875 875 875 875 875 875 875 876 876 876
772 774 777 780 784 787 790 794 797 800 803 806 809 812 814 817 819 821 824 826 828 831 833 835 837 839 841 842 844 846 848 849 850 851 853 854 855 855 856 857 858 859 860 862 863 864 865 866 866 867 867 868 868 869 869 870 870 871 872 872 873 873 873 873 873 873 874 876 876 874 873 874 873 873 873 874 874 875 875 875 875 875 875 875 875
769 772 775 779 782 785 788 791 794 797 800 803 806 809 812 814 817 819 821 824 827 830 832 834 836 837 839 841 843 844 846 847 848 850 851 852 853 854 855 856 857 858 859 860 862 863 864 865 866 866 867 867 867 868 868 869 869 870 871 871 872 872 873 873 873 873 873 874 875 874 873 874 873 872 873 873 873 874 874 875 875 875 875 875 875
767 770 773 776 779 782 785 788 791 794 797 800 803 806 809 812 814 817 819 822 825 827 830 832 834 835 837 839 840 842 844 845 847 848 849 850 852 853 854 855 856 856 858 859 860 862 863 864 865 865 866 866 866 867 867 868 868 869 870 870 871 871 872 872 872 873 873 873 874 873 873 873 873 872 872 872 873 873 874 874 874 874 874 874 874